SCP
1 1 1 2 2 2 2 1 1 1 1 1 1 1 1 1 1 1 1 1 2 2 2 1 1 2 2 2 2 2 2 1 1 1 1 1 0 0 0 0 0 0 0
2 2 2 2 2 2 1 1 1 1 1 1 1 1 1 1 1 1 1 1 2 2 2 2 2 2 2 2 2 2 2 2 1 1 1 1 0 0 0 0 0 0 0
3 2 2 2 2 1 1 1 1 1 1 1 1 1 1 1 1 1 1 1 1 1 2 2 2 2 2 2 2 2 2 2 1 1 1 1 1 1 0 0 0 0 0
3 3 2 2 1 1 1 1 1 1 1 1 0 0 1 1 1 1 1 1 1 1 1 2 2 2 2 2 2 2 2 2 1 1 1 1 1 1 1 0 0 0 0
4 3 3 2 2 1 1 1 1 1 1 0 0 0 0 1 1 1 1 1 1 1 1 1 2 2 2 2 2 2 2 2 1 1 1 1 1 1 1 1 1 0 0
4 3 3 3 2 1 1 1 0 0 0 0 0 0 1 1 1 1 1 1 1 1 1 1 1 1 2 2 2 2 2 2 2 1 1 1 1 1 1 1 1 1 1
4 4 4 3 2 1 1 0 0 0 0 0 0 0 0 1 1 1 1 1 1 1 1 1 1 1 1 2 2 2 2 2 2 2 1 1 1 1 1 1 1 1 1
4 4 4 3 2 1 1 0 0 0 0 0 0 0 0 0 1 1 1 0 0 1 1 1 1 1 1 1 1 1 1 2 2 2 1 1 1 1 1 1 1 1 1
4 5 5 4 2 1 1 1 0 0 0 0 0 0 0 0 0 0 0 0 0 1 1 1 1 1 1 1 1 1 1 1 1 1 1 1 1 1 1 1 1 1 1
6 6 5 4 3 1 1 1 1 0 0 0 0 0 0 0 0 0 0 0 0 0 0 0 0 1 1 1 1 1 1 1 1 1 1 1 1 1 1 1 1 1 1
6 6 5 4 3 2 1 1 1 1 0 0 0 0 0 0 0 0 0 0 0 0 0 0 0 1 1 1 1 1 1 1 1 1 1 1 1 1 1 1 1 1 1
6 6 5 3 3 2 2 1 1 1 0 0 0 0 0 0 0 0 0 0 0 0 0 1 1 1 1 1 1 1 1 1 0 0 0 0 1 1 1 1 1 1 1
5 5 4 3 3 2 2 1 1 0 0 0 0 0 0 0 0 0 0 0 0 0 0 1 1 1 1 1 1 1 1 1 0 0 0 0 0 0 1 1 1 1 1
4 4 4 4 3 2 2 1 1 0 0 0 0 0 0 0 0 0 0 0 0 0 0 0 1 1 1 1 1 1 1 1 0 0 0 0 0 0 0 0 1 1 1
2 3 3 3 3 2 1 1 1 0 1 1 1 1 1 0 0 0 0 0 0 0 0 0 1 1 1 1 0 0 1 0 0 0 0 0 0 0 0 0 0 1 1
1 2 2 2 2 2 1 1 1 1 1 1 1 1 1 1 1 1 1 0 0 0 0 0 0 1 1 0 0 1 1 1 0 0 0 0 0 0 0 0 0 0 0
2 2 2 2 1 1 1 1 2 2 2 2 2 2 2 2 1 1 1 1 0 0 0 0 0 0 1 1 1 1 1 0 0 0 0 0 0 0 0 0 0 0 0
3 2 2 2 2 2 2 2 2 2 2 2 2 2 2 2 2 2 1 1 0 0 0 0 0 0 1 1 1 1 1 0 0 0 0 0 0 0 0 0 0 0 0
3 3 3 3 3 3 3 3 3 3 3 3 3 3 3 2 2 2 1 1 1 0 1 0 0 0 1 1 1 1 1 0 0 0 0 0 0 0 0 0 0 0 0
4 4 3 3 4 4 4 4 4 4 4 3 3 3 3 2 2 2 1 1 1 1 1 1 0 0 1 1 1 1 1 0 0 0 0 0 0 0 0 0 0 0 0
5 5 4 4 4 4 4 4 4 4 4 4 3 3 3 2 1 1 1 1 1 1 1 1 0 0 0 0 1 0 0 0 0 0 0 0 0 0 0 0 0 0 0
6 5 5 5 4 3 3 2 2 2 3 3 3 3 2 1 1 1 0 0 0 0 0 0 0 0 0 0 0 0 0 0 0 0 0 0 0 0 1 0 0 0 0
6 6 6 5 4 3 2 1 1 1 2 2 3 3 2 1 1 1 1 1 0 0 0 0 0 0 0 0 0 0 0 0 0 0 0 0 0 0 1 0 0 0 0
5 6 6 5 5 3 2 1 0 1 1 2 2 2 2 1 1 1 1 1 1 1 0 0 0 0 0 0 0 0 0 0 0 0 0 0 0 0 0 0 0 0 0
5 5 5 5 4 3 2 0 0 1 1 1 2 1 1 1 1 1 1 1 1 1 1 0 0 0 0 0 0 0 0 0 0 0 0 0 0 0 0 0 0 0 0
5 5 5 4 3 3 2 1 0 1 1 1 2 1 1 1 1 1 1 1 1 1 1 1 0 0 0 0 0 0 0 0 0 0 0 0 0 0 0 0 0 0 0
Wind_Speed
2 3 2 2 1 2 2 1 1 0 1 1 3 2 3 2 1 2 4 10 10 10 11 11 11 11 11 10 10 10 10 10 10 9 9 8 8 8 8 8 7 7 7
3 3 3 2 1 2 2 1 1 1 1 1 2 2 2 2 1 1 2 5 9 10 10 11 12 12 12 11 11 11 11 11 10 10 9 9 9 9 9 9 8 8 8
3 3 3 2 2 2 2 1 1 1 1 1 1 2 2 1 1 1 1 2 5 9 10 10 11 12 12 12 12 12 11 10 10 10 10 10 10 10 9 9 9 9 8
3 2 3 3 1 1 2 1 1 1 1 1 1 2 2 2 3 3 3 3 3 4 8 11 11 11 12 13 13 12 12 12 11 11 11 11 11 11 11 10 10 10 9
3 3 3 2 1 1 2 2 3 2 1 1 3 3 2 3 3 3 3 3 3 3 4 8 12 11 13 13 13 13 13 13 13 13 13 13 12 12 12 12 11 11 11
3 3 4 2 1 2 2 2 1 0 1 1 4 2 2 2 2 1 1 2 2 3 2 4 5 7 12 13 12 13 13 13 13 14 13 13 14 13 13 13 13 13 12
3 2 4 2 2 3 2 2 1 2 1 1 2 3 3 4 3 2 1 0 0 0 1 2 3 2 4 11 12 12 13 13 13 14 14 14 14 14 14 14 14 14 14
3 4 3 2 2 2 2 1 1 2 2 1 2 3 2 1 1 2 2 2 1 0 1 2 3 3 2 2 6 11 12 12 13 13 14 14 13 13 13 14 14 14 15
3 3 3 2 1 2 3 1 1 1 2 2 1 2 3 2 2 1 0 1 1 0 1 1 2 2 2 2 2 5 8 8 10 12 13 14 14 14 14 14 14 15 16
3 4 3 3 1 1 2 1 2 1 1 2 1 0 1 2 2 2 1 1 1 1 1 1 1 1 2 2 2 4 5 5 7 9 11 12 13 15 15 16 17 16 16
3 4 4 3 2 1 2 2 2 2 2 2 2 2 1 0 2 1 2 2 2 1 1 1 0 0 0 2 3 4 5 4 3 4 7 9 11 14 16 18 19 19 18
4 4 5 3 2 1 2 2 1 0 0 2 2 3 2 1 2 2 2 2 2 1 1 1 1 0 0 2 3 5 7 6 4 3 3 5 8 10 12 16 19 19 19
4 4 5 4 2 2 2 2 1 1 0 0 1 2 2 2 2 2 2 3 3 3 2 1 2 1 1 2 3 4 6 7 6 5 4 5 6 8 9 12 14 16 17
5 7 5 4 3 3 3 2 2 2 2 1 2 1 2 2 2 1 1 2 3 3 2 1 1 1 1 2 4 3 4 7 7 7 7 7 7 7 8 9 11 12 13
5 7 6 5 4 3 2 2 1 1 1 1 2 2 2 2 1 1 1 1 2 3 3 2 1 0 1 1 5 3 2 7 9 9 10 9 9 8 8 9 10 10 11
4 6 5 5 4 4 3 2 2 2 2 2 2 2 1 2 2 2 1 2 2 2 3 3 2 1 1 2 2 2 3 6 10 12 13 12 12 11 10 10 10 10 11
5 5 5 5 4 4 4 3 3 3 3 3 3 3 3 3 2 3 2 2 2 2 3 4 3 2 2 3 3 3 4 5 6 13 15 15 14 14 13 12 12 12 12
5 5 5 5 5 5 5 4 5 4 3 4 4 3 3 3 3 3 2 3 3 3 3 5 4 4 5 4 5 5 6 7 5 8 13 15 15 15 14 14 13 13 13
6 6 6 6 5 5 5 5 5 4 4 4 4 4 4 4 4 3 3 4 3 4 3 4 5 4 4 5 4 4 6 5 7 9 10 14 16 16 15 15 15 15 14
7 7 7 6 6 5 5 5 6 5 5 5 5 5 5 5 5 4 5 5 5 4 4 4 5 4 4 4 3 3 4 4 5 7 6 6 11 16 18 17 17 16 16
9 7 7 7 6 6 7 7 6 7 5 5 5 5 6 7 7 5 6 4 4 3 4 4 5 4 4 3 3 2 4 4 4 5 4 5 4 5 8 13 16 17 17
7 7 7 7 7 8 8 9 6 4 4 5 5 6 6 7 9 12 12 11 8 7 6 5 5 6 6 5 3 4 4 4 4 3 3 5 4 4 4 5 11 17 18
7 6 7 7 7 6 7 7 7 5 5 5 6 5 7 8 6 6 10 14 14 15 14 9 9 9 8 6 5 5 5 5 6 4 5 6 5 6 6 8 12 13 16
6 6 6 6 5 6 8 9 8 6 6 7 7 7 7 8 9 7 7 7 8 9 12 12 11 12 11 9 8 7 7 7 7 7 7 8 7 7 8 6 10 12 14
5 6 6 6 6 5 8 9 8 5 6 8 8 8 8 9 11 12 9 8 9 8 11 15 16 16 16 14 9 5 6 6 8 7 6 7 6 6 5 5 7 12 14
4 5 5 6 6 6 8 10 10 5 6 6 6 8 12 12 11 10 8 8 9 9 9 10 9 11 12 13 15 12 9 9 9 7 6 6 6 5 5 5 5 5 6
Wind_Direction
113 104 97 104 136 127 137 143 115 91 327 328 296 302 327 336 41 85 137 164 170 177 185 191 194 196 195 197 196 194 193 191 188 185 184 185 185 184 184 181 176 173 171
111 117 123 121 97 105 112 123 146 168 241 264 288 307 299 312 32 90 152 174 183 184 189 196 201 201 202 202 201 201 198 197 193 189 192 192 192 192 193 191 188 184 182
121 123 125 119 104 122 131 138 176 179 210 233 256 280 271 284 276 219 203 190 190 195 197 199 203 203 206 208 207 206 200 198 197 194 196 198 199 198 197 198 196 193 190
130 131 121 111 145 143 138 145 61 27 40 346 267 260 238 213 222 217 219 211 195 191 199 204 204 205 208 213 213 211 204 201 201 200 201 203 206 205 203 203 201 198 196
150 130 107 109 198 105 79 60 69 21 360 329 270 237 231 215 210 225 210 219 207 190 189 199 206 207 212 216 217 217 212 206 204 203 204 206 210 211 208 207 206 203 201
145 123 123 128 101 83 70 64 42 308 289 289 300 295 247 226 201 206 231 229 205 210 189 176 193 214 220 220 220 220 219 214 209 207 207 209 214 215 211 210 210 208 206
130 122 116 134 116 104 86 59 9 318 291 357 307 286 242 204 173 174 191 291 285 237 175 173 190 197 211 218 221 222 222 221 216 211 211 213 217 216 215 213 213 212 211
148 148 121 143 107 118 108 81 42 337 337 23 322 320 311 74 325 173 161 195 178 4 261 212 179 194 211 188 212 221 224 226 224 219 217 216 217 216 219 218 215 215 214
160 115 133 117 124 149 125 118 52 10 356 326 15 354 349 26 323 102 141 104 104 222 291 284 211 195 199 167 177 207 218 224 229 229 226 224 222 219 220 222 222 219 217
163 147 141 127 106 79 111 154 85 352 339 321 351 42 44 55 337 340 315 89 185 203 226 301 327 218 180 145 140 148 185 209 228 238 237 234 230 226 223 225 229 228 223
171 157 142 132 130 102 106 87 75 360 341 352 348 355 11 329 250 274 315 326 294 240 189 180 254 324 130 142 140 142 157 169 196 239 246 245 241 235 230 229 233 235 231
175 162 146 138 160 144 117 117 100 204 348 15 347 336 338 338 335 334 319 308 304 292 217 145 176 194 131 118 128 143 162 170 181 210 249 258 254 247 242 236 235 237 236
162 158 149 148 165 136 142 142 174 243 213 38 307 308 339 337 335 340 331 325 323 298 260 199 176 165 139 131 127 156 177 181 191 207 229 249 259 260 253 244 239 238 238
150 146 142 157 162 165 177 158 218 195 166 191 261 307 313 305 326 337 324 327 317 312 315 303 109 119 113 119 144 195 195 197 204 215 226 236 245 254 256 248 242 239 240
141 143 153 160 166 170 166 157 231 208 148 207 252 225 251 286 284 302 311 314 310 312 315 320 348 142 172 161 175 218 228 211 219 226 230 234 238 243 248 248 243 238 238
131 144 157 162 169 169 177 197 234 195 198 215 233 234 256 290 309 290 277 285 283 288 297 314 299 294 322 294 222 247 278 253 232 235 233 233 234 236 238 239 240 239 240
151 161 167 173 180 182 181 194 242 207 207 223 243 228 223 254 286 303 295 277 269 274 283 295 302 311 293 268 264 255 265 255 241 240 233 230 231 232 234 235 236 237 238
169 175 179 186 198 193 189 197 228 230 219 225 235 240 243 247 232 255 278 286 281 270 261 276 285 282 274 260 246 240 260 269 269 261 236 228 228 230 231 233 235 235 236
182 185 187 197 208 208 197 203 216 234 235 236 237 236 239 247 252 246 255 265 277 283 279 275 278 271 266 259 249 251 258 263 270 274 249 229 228 230 231 233 234 234 234
190 195 194 202 209 217 214 209 212 221 229 236 240 241 241 240 241 240 251 247 253 265 270 270 268 267 264 262 250 247 265 260 269 283 287 261 232 228 231 232 234 233 233
199 198 199 203 210 217 219 213 217 223 220 230 239 241 244 243 238 237 252 256 269 269 274 277 277 279 275 282 280 274 275 277 270 267 269 273 255 232 228 234 237 237 234
203 197 202 207 214 225 214 205 207 237 237 237 242 244 250 243 235 231 236 241 241 249 258 266 276 276 280 285 289 289 287 287 283 281 295 290 287 274 254 234 230 228 229
202 205 207 212 221 219 201 197 206 223 248 252 252 251 258 261 249 234 232 235 241 242 238 243 257 263 270 276 285 288 280 277 274 280 291 279 270 270 265 271 261 240 228
199 203 208 218 224 223 204 205 209 225 245 252 253 250 250 258 262 258 259 252 239 238 232 230 237 245 250 250 251 257 261 268 264 256 245 258 256 252 258 256 264 255 235
200 205 211 215 218 221 204 207 205 231 245 251 254 256 252 252 250 248 248 254 258 258 256 247 228 232 238 245 246 256 260 265 270 265 249 251 256 255 252 251 252 252 241
209 215 218 218 219 222 210 208 207 233 251 259 259 257 255 254 255 248 245 252 257 258 264 273 260 246 244 246 240 234 242 250 259 263 253 255 260 261 267 255 252 253 243